Погода Нижний Чир

Хотите узнать прогноз погоды Нижний Чир? Тогда Вам сюда: Погода Нижний Чир

Поиск расширенной информации на нашем сайте:

Полезная информация:

Новости сайта



02.01.2020
Опубликован Долгосрочный прогноз погоды по городам России и ближнего зарубежья на январь 2020 года.
Карты: Прогноз на январь и февраль 2020 года, Сравнение прогнозируемой аномалии приземной температуры воздуха на январь 2020 года по разным моделям.




Погода Нижний Чир - сегодня

Время (UTC), дата Ветер
(°,м/с) 
Видим.   Явления Облачность Т
(°С)
Тd
(°С)
f(%) Тe
(°С)
Pmin
(гПа)
dP
(гПа)
Po
(мм)
O2
(г/м3)
Тmin Tmax R s Состояние
почвы
12 18.10.20 200 (Ю) 4{12}  10 км    10/10 300 м 
[St]
+21 +11.1 53 +24  1013.8  -0.4  754  280           
15 18.10.20 210 (ЮЗ) 20000 м    9/0 средняя, верхняя 
[Ac trans|Ci]
+22.2 +8.9 43 +22  1007  -0.9  749  278    +25.7       
18 18.10.20 210 (ЮЗ) 20000 м    ясно 
+16.3 +12 76 +20  1014.7  0.5  755  285           
21 18.10.20 290 (З) 20000 м    10/10 600 м 
[Sc]
+16.4 +10.4 68 +19  1015.7  0.9  755  285           
00 19.10.20 320 (СЗ) 20000 м    10/10 600 м 
[Sc]
+14.2 +7 62 +14  1017  1.2  756  288           
03 19.10.20 310 (СЗ) 20000 м    10/10 600 м 
[Sc]
+12.7 +6.7 67 +13  1018.2  1.1  757  290  +12.7         
06 19.10.20 340 (С) 20000 м    9/3 600 м средняя 
[Sc|Ac As]
+13.2 +6.1 62 +13  1019.4  1.3  758  290  +12.3         
09 19.10.20 040 (СВ) 20000 м    8/0 средняя, верхняя 
[Ac lent|Ci sp]
+15.5 +6.5 55 +16  1019.1  -0.2  758  288           
12 19.10.20 050 (СВ) 20000 м    9/0 средняя, верхняя 
[Ac trans|Ci sp]
+15.2 +6.1 55 +17  1017.9  -1.2  757  288           
15 19.10.20 320 (СЗ) 20000 м    10/10 600 м 
[Sc]
+14.2 +2.3 45 +15  1018.1  0.2  757  290    +16.1       
18 19.10.20 330 (СЗ) 20000 м  слаб. ливневой дождь  10/10 300 м кучево-дожд. 
[Cb cap]
+10.5 +4.1 65 +10  1019.6  1.3  758  293           
21 19.10.20 270 (З) 20000 м  слаб. ливневой дождь  10/10 300 м кучево-дожд. 
[Cb cap]
+8.4 +5.9 84 +9  1020.8  1.2  759  296           
00 20.10.20 240 (ЮЗ) 20000 м  {ливн. осадки}  ясно 
+6.9 +5 88 +6  1021.7  0.8  759  298           
03 20.10.20 260 (З) 20000 м    3/3 600 м верхняя 
[Sc|Ci fib]
+6.5 +3.2 79 +5  1022.7  760  299  +6.5       
06 20.10.20 270 (З) 20000 м    ясно 
+8.8 +3.3 68 +8  1023.6  761  297  +6.2         
09 20.10.20 270 (З) 20000 м    6/6 600 м 
[Cu med, cong]
+12.1 +3.6 56 +11  1023.8  0.3  761  293           
12 20.10.20 270 (З) 20000 м    4/4 600 м 
[Cu med, cong]
+12.5 +0.6 44 +12  1022.9  -0.9  761  293           
15 20.10.20 250 (З) 20000 м    ясно 
+8.4 -0.5 53 +7  1023.6  0.5  761  297    +12.5       
18 20.10.20 260 (З) 20000 м    ясно 
+6.8 -3.1 49 +5  1024.2  0.6  761  300           
21 20.10.20 260 (З) 20000 м    4/0 верхняя 
[Ci]
+5.4 -3.3 53 +3  1024.6  0.3  762  301           
00 21.10.20 270 (З) 20000 м    ясно 
+3.8 -2.6 63 +1  1025.6  0.9  762  303           
03 21.10.20 260 (З) 20000 м    ясно 
+2.3 -2.4 71 1027  1.3  763  305  +2.1         
06 21.10.20 270 (З) 20000 м    ясно 
+4.9 -0.9 66 +3  1028.3  1.4  764  303  +2         
09 21.10.20 270 (З) 20000 м    6/3 1000 м верхняя 
[Cu hum|Ci fib]
+10 -1.2 46 +9  1028.1  764  297           
12 21.10.20 270 (З) 5{10}  20000 м    6/0 верхняя 
[Ci fib]
+10.7 -3.5 37 +10  1027.6  -0.5  764  297           
Время (UTC), дата Ветер
(°,м/с) 
Видим.   Явления Облачность Т
(°С)
Тd
(°С)
f(%) Тe
(°С)
Pmin
(гПа)
dP
(гПа)
Po
(мм)
O2
(г/м3)
Тmin Tmax R s Состояние
почвы

Для получения пояснительной информации подведите курсор к названию столбца.

ПОГОДА Нижний Чир - архив

Всё, что Вы хотите узнать о погоде Нижний Чир - удобно и подробно!

Выберите нужную дату (начиная с 1 января 2019* года) и нажмите кнопку "Найти".
Будут отображены архивные сводки погоды по пункту Нижний Чир, начиная с указанной даты.


Отображать данные в формате CSV (для использования в таблицах Excel)


Внимание! Наш архив погоды предназначен исключительно для личного некоммерческого использования в познавательных целях. Если Вам необходимы официальные справки о состоянии погоды (для производственных, юридических, коммерческих и т.п. целей), обращайтесь в органы Росгидромета.

*Примечание: данная дата относится к архиву по метеостанциям СССР (Россия, СНГ, Балтия).
Архив по метеостанциям Зарубежной Европы и Азии (кроме Китая) хранится 10 дней, по другим регионам земного шара (Китай, Африка, Америка, Австралия, Океания) - 1 день.

Нижний Чир - район местоположения метеостанции


Название, широта, долгота, высота метеостанции:
Нижний Чир 48.3°ш. 43.1°д. 68 м над ур. моря [Российская Федерация]

Дополнительная информация

В oтличие oт бoльшинства пoгoдных сайтoв мы публикуем пoдрoбную метеoинфoрмацию в детальнoм прoфессиoнальнoм фoрмате.

Характеристики температуры и влажнoсти вoздуха измеряются на высoте 2 м в тени вдали oт зданий и деревьев.
Скoрoсть ветра измеряется на высoте 10 м (на урoвне рoста челoвека скoрoсть ветра ниже в 1.5-2 раза). Если метеoстанция нахoдится в гoрoде или в лесу, тo скoрoсть ветра занижена на 2-4 м/с пo сравнению с oткрытым местoм. Скoрoсть ветра над акватoриями крупных рек и oзёр, а также на вершинах хoлмoв на 2-5 м/с выше, чем в oбычных услoвиях.
Атмoсфернoе давление в разных тoчках местнoсти мoжет значительнo oтличаться oт давления на метеoстанции, в зависимoсти oт услoвий рельефа (при пoдъёме на 10 м давление пoнижается примернo на 1 мм рт.ст.).